SV3CQY Weather Reports


time (UTC)temp
C
wind
direction
speed
KPH
gust
KPH
rain 1hr
cm
rain 24hr
cm
rain mn
cm
humidity
%
barometer
mb
20260507225010 16 141 0.0 3.2 0.00 0.00 0.00 66 1016.8
20260507224537 16 231 0.0 3.2 0.00 0.00 0.00 66 1017.1
20260507224011 16 191 0.0 3.2 0.00 0.00 0.00 67 1017.2
20260507223515 15 211 0.0 3.2 0.00 0.00 0.00 67 1017.2
20260507223029 15 201 1.6 3.2 0.00 0.00 0.00 67 1017.2
20260507222510 15 200 1.6 3.2 0.00 0.00 0.00 68 1017.2
20260507222008 15 226 0.0 3.2 0.00 0.00 0.00 68 1017.3
20260507221528 15 224 0.0 3.2 0.00 0.00 0.00 68 1017.3
20260507221009 15 211 1.6 3.2 0.00 0.00 0.00 68 1017.2
20260507220510 15 227 1.6 4.8 0.00 0.00 0.00 67 1017.2
20260507220038 15 217 1.6 4.8 0.00 0.00 0.00 67 1017.2
20260507215509 15 184 1.6 4.8 0.00 0.00 0.00 67 1017.2
20260507215010 15 214 1.6 4.8 0.00 0.00 0.00 67 1017.2
20260507214535 15 208 1.6 4.8 0.00 0.00 0.00 67 1017.3
20260507214011 15 150 1.6 4.8 0.00 0.00 0.00 67 1017.4
20260507213512 15 225 1.6 4.8 0.00 0.00 0.00 67 1017.5
20260507213033 15 219 1.6 4.8 0.00 0.00 0.00 67 1017.4
20260507212511 15 217 1.6 4.8 0.00 0.00 0.00 68 1017.5
20260507212011 15 184 0.0 1.6 0.00 0.00 0.00 68 1017.6
20260507211534 15 156 0.0 1.6 0.00 0.00 0.00 68 1017.7
20260507211008 15 181 0.0 1.6 0.00 0.00 0.00 67 1017.7
20260507210509 15 0 0.0 1.6 0.00 0.00 0.00 67 1017.8
20260507210028 16 0 0.0 3.2 0.00 0.00 0.00 66 1017.8
20260507205513 16 0 0.0 3.2 0.00 0.00 0.00 66 1017.8
20260507205014 16 218 0.0 3.2 0.00 0.00 0.00 65 1017.8
20260507204528 16 221 0.0 1.6 0.00 0.00 0.00 65 1018.0
20260507204013 16 223 0.0 1.6 0.00 0.00 0.00 64 1018.0
20260507203510 16 0 0.0 1.6 0.00 0.00 0.00 65 1018.0
20260507203032 16 0 0.0 1.6 0.00 0.00 0.00 64 1018.0
20260507202509 16 0 0.0 3.2 0.00 0.00 0.00 64 1017.9
20260507202013 16 207 0.0 3.2 0.00 0.00 0.00 63 1018.0
20260507201527 17 222 1.6 3.2 0.00 0.00 0.00 63 1018.0
20260507201011 16 243 1.6 3.2 0.00 0.00 0.00 64 1017.9
20260507200511 16 189 0.0 4.8 0.00 0.00 0.00 64 1017.9
20260507200029 16 218 1.6 6.4 0.00 0.00 0.00 64 1018.0
20260507195509 16 213 3.2 6.4 0.00 0.00 0.00 64 1018.0
20260507195011 16 217 3.2 6.4 0.00 0.00 0.00 64 1017.8
20260507194528 16 246 1.6 3.2 0.00 0.00 0.00 65 1017.8
20260507194010 16 0 0.0 1.6 0.00 0.00 0.00 65 1017.8
20260507193507 16 214 0.0 1.6 0.00 0.00 0.00 65 1017.8
20260507193030 16 217 0.0 3.2 0.00 0.00 0.00 66 1018.0
20260507192509 16 219 1.6 3.2 0.00 0.00 0.00 66 1018.0
20260507192008 16 225 0.0 3.2 0.00 0.00 0.00 66 1017.9
20260507191526 16 209 1.6 3.2 0.00 0.00 0.00 66 1017.6
20260507191013 16 210 1.6 3.2 0.00 0.00 0.00 66 1017.5
20260507190513 16 190 1.6 3.2 0.00 0.00 0.00 66 1017.5
20260507190028 16 216 1.6 3.2 0.00 0.00 0.00 66 1017.6
20260507185516 16 228 0.0 3.2 0.00 0.00 0.00 65 1017.5
20260507185012 16 237 1.6 3.2 0.00 0.00 0.00 64 1017.3
20260507184527 16 214 1.6 3.2 0.00 0.00 0.00 64 1017.1
20260507184015 16 207 0.0 3.2 0.00 0.00 0.00 64 1017.1
20260507183512 16 226 0.0 3.2 0.00 0.00 0.00 63 1017.1
20260507183028 16 231 0.0 3.2 0.00 0.00 0.00 64 1017.0
20260507182013 16 0 0.0 3.2 0.00 0.00 0.00 66 1016.8
20260507181526 16 0 0.0 3.2 0.00 0.00 0.00 65 1016.7
20260507181010 17 224 1.6 4.8 0.00 0.00 0.00 64 1016.5
20260507180513 17 221 1.6 4.8 0.00 0.00 0.00 63 1016.4
20260507180028 17 191 1.6 3.2 0.00 0.00 0.00 63 1016.3
20260507175508 17 201 1.6 3.2 0.00 0.00 0.00 63 1016.4
20260507175011 17 226 1.6 4.8 0.00 0.00 0.00 63 1016.4
20260507174538 17 214 1.6 4.8 0.00 0.00 0.00 63 1016.4
20260507174008 18 211 1.6 3.2 0.00 0.00 0.00 63 1016.4
20260507173512 18 216 1.6 3.2 0.00 0.00 0.00 63 1016.5
20260507173030 18 0 0.0 1.6 0.00 0.00 0.00 63 1016.5
20260507172512 18 160 0.0 1.6 0.00 0.00 0.00 64 1016.4
20260507172012 18 0 0.0 1.6 0.00 0.00 0.00 63 1016.5
20260507171528 19 127 0.0 1.6 0.00 0.00 0.00 63 1016.3
20260507171009 19 0 0.0 1.6 0.00 0.00 0.00 61 1016.4
20260507170040 19 60 0.0 1.6 0.00 0.00 0.00 60 1016.5
20260507165510 19 0 0.0 1.6 0.00 0.00 0.00 61 1016.5
20260507165012 20 0 0.0 3.2 0.00 0.00 0.00 61 1016.5
20260507164527 20 0 0.0 3.2 0.00 0.00 0.00 60 1016.6
20260507164015 20 316 1.6 3.2 0.00 0.00 0.00 60 1016.6
20260507163509 20 316 1.6 3.2 0.00 0.00 0.00 59 1016.6
20260507163027 20 318 0.0 1.6 0.00 0.00 0.00 57 1016.6
20260507162509 21 340 0.0 1.6 0.00 0.00 0.00 57 1016.5
20260507162012 21 0 0.0 0.0 0.00 0.00 0.00 56 1016.5
20260507161529 21 0 0.0 3.2 0.00 0.00 0.00 50 1016.3
20260507161013 21 0 0.0 3.2 0.00 0.00 0.00 49 1016.3
20260507160509 21 0 0.0 1.6 0.00 0.00 0.00 50 1016.3
20260507160032 21 120 0.0 3.2 0.00 0.00 0.00 49 1016.3
20260507155010 21 0 0.0 1.6 0.00 0.00 0.00 51 1016.4
20260507154528 21 37 0.0 1.6 0.00 0.00 0.00 49 1016.5
20260507154010 21 37 0.0 1.6 0.00 0.00 0.00 51 1016.5
20260507153507 21 0 0.0 3.2 0.00 0.00 0.00 50 1016.6
20260507153025 21 75 0.0 3.2 0.00 0.00 0.00 48 1016.7
20260507152511 21 13 1.6 3.2 0.00 0.00 0.00 49 1016.7
20260507152015 21 0 0.0 1.6 0.00 0.00 0.00 46 1016.5
20260507151527 21 0 0.0 6.4 0.00 0.00 0.00 47 1016.5
20260507151012 21 1 0.0 6.4 0.00 0.00 0.00 47 1016.7
20260507150509 21 1 1.6 4.8 0.00 0.00 0.00 45 1016.5
20260507150032 21 356 0.0 3.2 0.00 0.00 0.00 46 1016.6
20260507145509 21 37 0.0 1.6 0.00 0.00 0.00 49 1016.6
20260507145008 21 0 0.0 1.6 0.00 0.00 0.00 50 1016.5
20260507144527 21 356 0.0 6.4 0.00 0.00 0.00 51 1016.5
20260507144009 21 0 1.6 6.4 0.00 0.00 0.00 56 1016.7
20260507143511 21 345 1.6 6.4 0.00 0.00 0.00 53 1016.7
20260507143028 21 0 0.0 4.8 0.00 0.00 0.00 55 1016.6
20260507142509 21 101 3.2 8.0 0.00 0.00 0.00 50 1016.5
20260507142012 21 0 1.6 8.0 0.00 0.00 0.00 48 1016.4
20260507141526 21 42 3.2 6.4 0.00 0.00 0.00 45 1016.2
20260507141010 22 96 1.6 6.4 0.00 0.00 0.00 46 1016.5
20260507140513 21 104 4.8 6.4 0.00 0.00 0.00 43 1016.3
20260507140027 21 81 3.2 6.4 0.00 0.00 0.00 47 1016.3
20260507135514 22 72 1.6 6.4 0.00 0.00 0.00 44 1016.2
20260507135012 22 105 0.0 4.8 0.00 0.00 0.00 44 1016.5
20260507134526 22 83 0.0 3.2 0.00 0.00 0.00 42 1016.6
20260507134010 22 73 1.6 3.2 0.00 0.00 0.00 41 1016.5
20260507133512 21 338 1.6 3.2 0.00 0.00 0.00 43 1016.6
20260507133026 22 356 1.6 3.2 0.00 0.00 0.00 40 1016.4
20260507132514 22 354 1.6 4.8 0.00 0.00 0.00 42 1016.4
20260507132011 22 350 3.2 4.8 0.00 0.00 0.00 41 1016.3
20260507131534 22 50 1.6 4.8 0.00 0.00 0.00 42 1016.4
20260507131011 22 352 1.6 6.4 0.00 0.00 0.00 39 1016.4
20260507130511 22 360 1.6 8.0 0.00 0.00 0.00 41 1016.3
20260507130027 22 61 1.6 8.0 0.00 0.00 0.00 39 1016.3
20260507125512 23 56 1.6 8.0 0.00 0.00 0.00 37 1016.3
20260507125014 23 345 3.2 8.0 0.00 0.00 0.00 39 1016.3
20260507124531 23 34 3.2 8.0 0.00 0.00 0.00 38 1016.4
20260507124011 22 314 3.2 9.7 0.00 0.00 0.00 40 1016.4
20260507123511 22 352 3.2 9.7 0.00 0.00 0.00 38 1016.4
20260507123028 23 56 3.2 9.7 0.00 0.00 0.00 40 1016.5
20260507122507 22 334 3.2 8.0 0.00 0.00 0.00 40 1016.6
20260507122010 22 360 1.6 8.0 0.00 0.00 0.00 42 1016.7
20260507121526 22 344 3.2 8.0 0.00 0.00 0.00 52 1016.8
20260507121010 22 359 3.2 8.0 0.00 0.00 0.00 44 1016.7
20260507120510 22 35 4.8 6.4 0.00 0.00 0.00 41 1016.9
20260507120037 22 20 1.6 6.4 0.00 0.00 0.00 45 1017.0
20260507115509 22 335 1.6 6.4 0.00 0.00 0.00 48 1016.9
20260507115011 22 325 3.2 6.4 0.00 0.00 0.00 45 1016.9
20260507114527 22 351 1.6 4.8 0.00 0.00 0.00 42 1016.8
20260507114012 22 356 1.6 4.8 0.00 0.00 0.00 43 1016.8
20260507113510 21 10 3.2 4.8 0.00 0.00 0.00 44 1016.9
20260507113028 21 4 1.6 4.8 0.00 0.00 0.00 46 1017.0
20260507112513 21 354 1.6 4.8 0.00 0.00 0.00 45 1017.0
20260507112008 21 25 1.6 4.8 0.00 0.00 0.00 45 1016.9
20260507111528 22 15 1.6 4.8 0.00 0.00 0.00 45 1017.0
20260507111009 21 354 1.6 3.2 0.00 0.00 0.00 45 1016.9
20260507110508 22 5 0.0 3.2 0.00 0.00 0.00 48 1017.0
20260507101007 19 359 3.2 9.7 0.00 0.00 0.00 64 1017.3
20260507090508 18 318 4.8 9.7 0.00 0.00 0.00 73 1017.3
20260507085508 20 347 3.2 9.7 0.00 0.00 0.00 69 1017.3
20260507084012 20 14 4.8 12.9 0.00 0.00 0.00 64 1017.3
20260507083510 20 7 3.2 9.7 0.00 0.00 0.00 61 1017.3
20260507083026 20 356 3.2 9.7 0.00 0.00 0.00 56 1017.2
20260507082511 20 316 4.8 9.7 0.00 0.00 0.00 52 1017.3
20260507082010 20 325 1.6 6.4 0.00 0.00 0.00 62 1017.4
20260507081540 20 23 3.2 6.4 0.00 0.00 0.00 57 1017.4
20260507081007 19 349 1.6 6.4 0.00 0.00 0.00 57 1017.3
20260507080511 19 2 1.6 6.4 0.00 0.00 0.00 57 1017.4
20260507080027 19 338 1.6 4.8 0.00 0.00 0.00 57 1017.2
20260507075514 19 13 1.6 6.4 0.00 0.00 0.00 56 1017.2
20260507075011 19 293 1.6 6.4 0.00 0.00 0.00 60 1017.1
20260507074545 18 356 3.2 8.0 0.00 0.00 0.00 63 1017.1
20260507074008 18 353 3.2 8.0 0.00 0.00 0.00 63 1017.1
20260507073510 18 15 4.8 8.0 0.00 0.00 0.00 61 1017.3
20260507073028 18 355 3.2 8.0 0.00 0.00 0.00 63 1017.4
20260507072510 18 320 3.2 9.7 0.00 0.00 0.00 62 1017.5
20260507072012 18 324 3.2 9.7 0.00 0.00 0.00 63 1017.4
20260507071526 18 338 4.8 9.7 0.00 0.00 0.00 64 1017.3
20260507071012 18 338 4.8 8.0 0.00 0.00 0.00 63 1017.2
20260507070512 18 305 3.2 6.4 0.00 0.00 0.00 58 1017.2
20260507070028 18 315 3.2 6.4 0.00 0.00 0.00 59 1017.1
20260507065512 18 309 1.6 4.8 0.00 0.00 0.00 60 1017.2
20260507065011 18 354 1.6 8.0 0.00 0.00 0.00 64 1017.3
20260507064528 18 318 1.6 8.0 0.00 0.00 0.00 59 1017.3
20260507064010 18 327 1.6 6.4 0.00 0.00 0.00 58 1017.2
20260507063511 17 319 3.2 6.4 0.00 0.00 0.00 57 1017.2
20260507063028 17 321 3.2 6.4 0.00 0.00 0.00 59 1017.2
20260507062510 18 9 3.2 6.4 0.00 0.00 0.00 61 1017.2
20260507062010 18 319 1.6 6.4 0.00 0.00 0.00 60 1017.2
20260507061532 18 344 1.6 4.8 0.00 0.00 0.00 55 1017.1
20260507061011 18 4 1.6 4.8 0.00 0.00 0.00 52 1017.1
20260507060508 18 36 0.0 4.8 0.00 0.00 0.00 53 1017.1
20260507060028 18 6 1.6 3.2 0.00 0.00 0.00 52 1017.0
20260507055509 18 0 0.0 1.6 0.00 0.00 0.00 52 1017.1
20260507055014 18 359 0.0 3.2 0.00 0.00 0.00 57 1017.0
20260507054528 17 357 0.0 3.2 0.00 0.00 0.00 60 1017.0
20260507054012 17 358 1.6 3.2 0.00 0.00 0.00 61 1017.1
20260507053513 17 320 1.6 3.2 0.00 0.00 0.00 61 1017.1
20260507053027 17 7 1.6 3.2 0.00 0.00 0.00 58 1017.0
20260507052510 17 317 1.6 3.2 0.00 0.00 0.00 59 1016.9
20260507052014 16 308 1.6 3.2 0.00 0.00 0.00 59 1016.8
20260507051528 16 309 0.0 3.2 0.00 0.00 0.00 61 1016.8
20260507051017 16 309 0.0 3.2 0.00 0.00 0.00 60 1016.8
20260507050510 16 0 0.0 1.6 0.00 0.00 0.00 55 1016.6
20260507050030 17 216 0.0 1.6 0.00 0.00 0.00 54 1016.6
20260507045513 17 0 0.0 1.6 0.00 0.00 0.00 57 1016.5
20260507045010 17 216 0.0 1.6 0.00 0.00 0.00 55 1016.4
20260507044527 16 0 0.0 1.6 0.00 0.00 0.00 57 1016.3
20260507044011 15 0 0.0 1.6 0.00 0.00 0.00 56 1016.2
20260507043512 15 216 0.0 1.6 0.00 0.00 0.00 57 1016.1
20260507043027 15 206 0.0 3.2 0.00 0.00 0.00 58 1016.0
20260507042510 14 160 0.0 4.8 0.00 0.00 0.00 59 1016.0
20260507042012 13 188 1.6 4.8 0.00 0.00 0.00 60 1015.9
20260507041531 13 188 3.2 4.8 0.00 0.00 0.00 61 1015.7
20260507041013 12 243 1.6 4.8 0.00 0.00 0.00 63 1015.8
20260507040510 12 207 1.6 3.2 0.00 0.00 0.00 66 1015.9
20260507040027 12 220 0.0 3.2 0.00 0.00 0.00 67 1015.7
20260507035510 12 198 0.0 3.2 0.00 0.00 0.00 67 1015.7
20260507035014 12 181 0.0 4.8 0.00 0.00 0.00 67 1015.9
20260507034530 12 209 1.6 4.8 0.00 0.00 0.00 67 1015.9
20260507034009 12 201 1.6 3.2 0.00 0.00 0.00 67 1015.9
20260507033510 12 215 1.6 3.2 0.00 0.00 0.00 67 1015.9
20260507033031 11 205 0.0 3.2 0.00 0.00 0.00 66 1015.7
20260507032512 12 172 0.0 3.2 0.00 0.00 0.00 66 1015.8
20260507032018 12 226 1.6 3.2 0.00 0.00 0.00 66 1015.8
20260507031527 11 0 0.0 3.2 0.00 0.00 0.00 66 1015.8
20260507031015 11 200 1.6 3.2 0.00 0.00 0.00 65 1015.8
20260507030512 12 210 1.6 3.2 0.00 0.00 0.00 67 1015.7
20260507030029 11 229 1.6 3.2 0.00 0.00 0.00 67 1015.8
20260507025509 11 216 1.6 4.8 0.00 0.00 0.00 67 1015.8
20260507025012 11 226 1.6 4.8 0.00 0.00 0.00 67 1015.8
20260507024527 11 212 1.6 4.8 0.00 0.00 0.00 67 1015.8
20260507024012 11 214 1.6 4.8 0.00 0.00 0.00 67 1015.9
20260507023511 12 205 1.6 4.8 0.00 0.00 0.00 67 1015.8
20260507023028 12 219 1.6 3.2 0.00 0.00 0.00 67 1015.8
20260507022510 12 217 1.6 3.2 0.00 0.00 0.00 66 1015.9
20260507022007 12 0 0.0 3.2 0.00 0.00 0.00 64 1015.9
20260507021528 12 169 0.0 3.2 0.00 0.00 0.00 69 1015.8
20260507021009 12 0 0.0 3.2 0.00 0.00 0.00 65 1015.8
20260507020512 12 239 0.0 3.2 0.00 0.00 0.00 64 1015.8
20260507020028 12 159 0.0 3.2 0.00 0.00 0.00 63 1015.8
20260507015507 12 0 0.0 4.8 0.00 0.00 0.00 62 1015.9
20260507015011 12 216 0.0 4.8 0.00 0.00 0.00 63 1015.8
20260507014542 12 197 0.0 4.8 0.00 0.00 0.00 62 1015.8
20260507014008 12 215 0.0 4.8 0.00 0.00 0.00 61 1015.9
20260507013508 12 0 0.0 4.8 0.00 0.00 0.00 61 1015.8
20260507013028 12 0 0.0 3.2 0.00 0.00 0.00 62 1015.8
20260507012012 12 302 0.0 4.8 0.00 0.00 0.00 64 1015.8
20260507011529 12 0 1.6 4.8 0.00 0.00 0.00 65 1015.8
20260507011010 12 157 0.0 4.8 0.00 0.00 0.00 62 1015.9
20260507010508 12 0 0.0 4.8 0.00 0.00 0.00 61 1015.8
20260507010032 12 158 1.6 4.8 0.00 0.00 0.00 62 1015.8
20260507005510 12 202 1.6 4.8 0.00 0.00 0.00 62 1015.8
20260507005013 12 150 0.0 4.8 0.00 0.00 0.00 63 1015.9
20260507004525 12 224 1.6 3.2 0.00 0.00 0.00 63 1015.9
20260507004015 13 235 1.6 3.2 0.00 0.00 0.00 64 1015.8
20260507003509 13 0 0.0 3.2 0.00 0.00 0.00 69 1015.9
20260507003027 13 0 0.0 3.2 0.00 0.00 0.00 65 1016.0
20260507001017 13 184 1.6 4.8 0.00 0.00 0.00 61 1016.0
20260507000508 14 229 0.0 3.2 0.00 0.00 0.00 59 1016.0
20260507000035 14 205 0.0 11.3 0.00 0.00 0.00 59 1016.1
20260506235509 15 0 0.0 11.3 0.00 0.00 0.00 60 1016.0
20260506235010 15 226 3.2 14.5 0.00 0.00 0.00 67 1016.1
20260506234527 15 265 4.8 14.5 0.00 0.00 0.00 71 1016.1
20260506234010 14 268 1.6 9.7 0.00 0.00 0.00 66 1016.0
20260506233510 13 279 1.6 4.8 0.00 0.00 0.00 64 1016.1
20260506233026 13 0 0.0 3.2 0.00 0.00 0.00 61 1016.0
20260506232510 13 0 0.0 6.4 0.00 0.00 0.00 61 1016.0
20260506231528 13 0 0.0 8.0 0.00 0.00 0.00 62 1016.0
20260506230510 15 304 0.0 8.0 0.00 0.00 0.00 72 1016.2
20260506225510 13 0 0.0 3.2 0.00 0.00 0.00 67 1016.2